weather.gov     
National Weather Service

Terminal Aerodrome Forecast
NWS Homepage
This page is being discontinued on March 12, 2014.
The same data is available at this site. Please update your bookmarks.
Thank you, and we apologize for the inconvenience.
Please send an email to SR-SRH.Webmaster@noaa.gov with any concerns.


Current Version
Previous Version:    01  02  03  04  05  06  07  08  09  10  11  12  13  14  15  16  17  18  19  20  21  22  23  24  25  26  27  28  29  30  
   31  32  33  34  35  36  37  38  39  
[Printable]
519
FTUS45 KSLC 250540
TAFOGD
TAF
KOGD 250540Z 2506/2606 17007KT P6SM BKN120
      TEMPO 2506/2508 23012G22KT OVC080
     FM251800 27010KT P6SM VCSH SCT060 BKN100
     FM252200 32009KT P6SM -SHRA SCT040 BKN070=


519
FTUS45 KSLC 250540
TAFOGD
TAF
KOGD 250540Z 2506/2606 17007KT P6SM BKN120
      TEMPO 2506/2508 23012G22KT OVC080
     FM251800 27010KT P6SM VCSH SCT060 BKN100
     FM252200 32009KT P6SM -SHRA SCT040 BKN070=




U.S. Dept. of Commerce
NOAA National Weather Service
1325 East West Highway
Silver Spring, MD 20910
E-mail: w-nws.webmaster@noaa.gov
Page last modified: May 16, 2007
NATIONAL WEATHER SERVICE: for Safety, for Work, for Fun - FOR LIFE